DELTA 1 DEB, 2223

Orbit data source: Space-Track

DELTA 1 DEB, 2223 is space debris in SSO originally from a launch on Mon, 28 Feb 1966 UTC launched from the Air Force Eastern Test Range (AFETR). Debris objects in space refer to the collection of defunct objects orbiting the Earth. Examples of debris include non-operational satellites, rocket bodies, and fragments generated from explosions, collisions, or faulty payload assembly.

Loading next visibility...
Identifier
2223, 1966-016C
Orbit
SSO
Country
Flag of USUS
Related business
Manufacturer
Unknown
Mission
Spacecraft
Bus & Motor
Unknown
Mass
1 kg wet, 1 kg dry
Launch date (UTC)
1966-02-28 (60 years ago)
Launch vehicle
Unknown
Launch site
Air Force Eastern Test Range (AFETR)
Object type
Payload
Rocket body
Debris
Shape & HBR
Cyl + 1 Cable, 1.8 m
Radar Cross Section
3.500 m², Small (<0.1 m²)

Expand to show TLE details & history
Last TLE update: 6 days ago

TLE from 6 days ago
0 DELTA 1 DEB
1 02223U 66016C   25253.07031868 -.00000018  00000-0  94178-4 0  9991
2 02223 100.7673 286.3043 0094209  92.4540 295.3268 12.87758374790901
Epoch: 2025-09-10T01:41Z
TLE epoch observation values (Epoch: 2025-09-10T01:41:15.533Z)
Latitude
26.32635°
Longitude
-93.73456°
Altitude
1,282.987 km
Speed
7.231 km/s
True Right ascension
18h 43m 43s
True Declination
26° 11' 57"
Sunlit
Object was in daylight at epoch
Visualization orbit readout
Latitude
Unknown
Longitude
Unknown
Altitude
Unknown
Speed
Unknown
Apparent Right ascension
Unknown
Apparent Declination
Unknown
Sunlit
N/A
Visualization observer readout
Local Sidereal Time
18:51:32
Azimuth
Unknown
Elevation
Unknown
Doppler factor
Unknown
Orbital elements
Apogee altitude
1,380.283 km
Perigee altitude
1,235.465 km
Semi-major axis
7,686.011 km
Eccentricity
0.00942
Inclination
100.7673°
RAAN
286.3043°
Arg. of periapsis
92.454°
True anomaly
294.34612°
Mean anomaly
295.3268°
Eccentric anomaly
294.83695°
Mean motion
3.22101 °/min
Orbital period
111.77 mins
BSTAR
0.000094178
Loading maneuver chart data...
Computing Atmospheric mass density...
Loading historical data...
Loading historical data...
Loading historical data...
Loading historical data...
Loading historical data...
Loading historical data...
Loading historical data...
Other satellites on launch #16 in the year 1966 (1966-02-28 UTC)

Documentation

Showing up to 5 results
|